Back to catalog

NATO 4B

AliveMilitaryGEO
NORAD 22921·PAYLOAD· XX

Launched Dec 8, 1993 from Cape Canaveral Space Force Station

Loading…

TLE

FreshSource: Space-Track

Epoch: Sep 14, 2026, 03:22 UTC

1 22921U 93076A   26257.14031036 -.00000217  00000-0  00000-0 0  9992
2 22921  12.9686   0.5943 0000795 201.3013 165.9288  0.98519648119495

Track NATO 4B in real time with AllMySat

Download on the App Store